Погода в Атлантик-Сити

США     39°21′34″N   74°26′02″W
темп.,
°C
ветер,
м/с
пор.,
м/с
влажн.,
%
обл.,
%
осадки,
мм/ч
давл.,
гПа
погр.,
м
21 октября, чт
чт2123:00+18з46740 0.0 1018126
02:00+17зюз58752 0.0 1018194
05:00+17зюз57735 0.0 1018196
08:00+17зюз467426 0.0 1018173
11:00+19ююз576513 0.0 1017257
14:00+19ююз711713 0.0 1015333
17:00+19ююз913767 0.0 1013281
20:00+19ююз914780 0.0 1013324
22 октября, пт
пт2223:00+20ююз1017725 0.0 1012435
02:00+20юз8136830 0.1 1011364
05:00+19зюз711725 0.0 1011447
08:00+17з610777 0.0 1013695
11:00+18з685883 0.0 1014802
14:00+19зюз685989 0.0 1013829
17:00+19зюз576196 0.0 1014639
20:00+17з5764100 0.0 1015386
23 октября, сб
сб2323:00+16сз57730 0.0 1015263
02:00+15сз33752 0.0 1015163
05:00+14зсз457899 0.0 1015170
08:00+14зсз5678100 0.0 1016240
11:00+16зсз576425 0.0 1017728
14:00+18зсз675497 0.0 10161805
17:00+18зсз575710 0.0 10161303
20:00+16зсз46675 0.0 1017289
24 октября, вс
вс2423:00+15з587298 0.0 1018295
02:00+14з577585 0.0 1019255
05:00+13зсз4575100 0.0 1020183
08:00+14зюз2273100 0.0 1020151
11:00+15в117115 0.0 1021169
14:00+18ююз687029 0.0 1018683
17:00+19ююз9127671 0.0 1016323
20:00+19ююз91381100 0.0 1017330
25 октября, пн
пн2523:00+19юз91682100 0.0 1015415
02:00+19зюз587364 0.0 1015154
05:00+15ссв4491100 0.0 1016223
08:00+16св7787100 0.0 1017420
11:00+16всв8885100 0.1 1016673
14:00+17всв8986100 0.3 1015714
17:00+17в9988100 0.5 1014720
20:00+17юв7791100 6.1 1012410